Date,TemperatureHighF,TemperatureAvgF,TemperatureLowF,DewpointHighF,DewpointAvgF,DewpointLowF,HumidityHigh,HumidityAvg,HumidityLow,PressureMaxIn,PressureMinIn,WindSpeedMaxMPH,WindSpeedAvgMPH,GustSpeedMaxMPH,PrecipitationSumIn
2014-2-11,73.6,66.5,56.1,62.5,58.9,54.3,94,78,56,29.97,29.91,10,5,12,0.00
2014-2-12,76.1,62.3,53.2,68.5,58.8,-99.9,98,91,72,29.94,29.64,18,5,19,0.89
2014-2-13,66.1,64.4,63.0,64.6,61.8,58.4,95,91,85,29.65,29.64,17,12,23,0.05
2014-2-14,63.0,56.7,42.9,50.7,46.5,39.9,96,71,47,29.99,29.87,12,4,12,0.00
2014-2-15,67.0,59.5,49.2,61.3,50.4,42.8,97,74,47,30.06,29.84,18,8,19,0.01
2014-2-16,48.9,46.2,44.5,45.8,43.9,42.6,94,92,89,30.05,30.02,2,0,15,0.00
2014-2-17,78.9,66.8,52.8,56.6,49.3,37.7,92,59,24,30.13,30.05,9,3,11,0.00
2014-2-18,76.6,63.1,49.6,60.7,54.1,42.8,94,74,50,30.15,30.04,10,3,11,0.00
2014-2-19,78.3,67.5,57.8,63.9,60.3,55.5,94,79,59,30.08,29.97,9,3,16,0.00
2014-2-20,83.3,69.1,57.5,67.9,62.5,56.4,98,82,53,30.04,29.92,9,3,16,0.00
2014-2-21,79.4,73.1,67.2,72.7,69.8,65.7,97,90,78,29.96,29.90,13,6,23,0.00
2014-2-22,78.0,72.1,69.3,72.4,70.0,68.4,98,93,81,30.01,29.91,13,3,13,0.21
2014-2-23,70.1,69.0,68.5,69.2,68.4,67.9,99,98,96,29.98,29.93,4,2,6,0.00
2014-2-24,76.6,71.2,66.7,68.5,66.5,64.9,95,86,71,29.97,29.90,11,5,13,0.00
2014-2-25,74.0,67.4,61.8,67.2,64.7,60.6,98,91,76,29.96,29.87,12,4,14,0.00
2014-2-26,61.9,60.8,59.1,61.1,59.8,58.2,98,97,96,29.87,29.78,2,0,5,0.00
2014-3-3,76.9,71.8,67.6,66.5,64.8,61.0,93,80,59,29.94,29.90,10,5,18,0.00
2014-3-4,77.7,69.5,63.6,68.6,65.4,61.4,97,87,71,29.95,29.88,10,4,18,0.00
2014-3-5,78.1,69.5,61.7,67.8,64.4,60.0,97,84,66,29.94,29.84,9,3,12,0.00
2014-3-6,68.9,66.1,63.3,67.1,64.2,61.2,98,94,84,29.90,29.63,11,4,13,1.04
2014-3-7,67.2,61.2,54.1,66.0,55.8,48.4,97,83,74,29.96,29.69,17,11,21,0.00
2014-3-8,68.6,55.8,42.9,56.2,49.3,41.0,95,80,59,30.08,29.95,11,4,13,0.00
2014-3-9,72.4,62.0,51.4,61.6,56.7,50.3,98,84,62,30.11,30.01,12,3,14,0.00
2014-3-10,72.5,63.7,55.8,58.7,55.9,51.7,96,77,51,30.05,29.91,11,3,13,0.00
2014-3-11,75.9,65.6,55.0,65.5,59.1,52.1,97,81,47,29.93,29.75,9,3,13,0.00
2014-3-12,76.3,71.9,67.8,69.3,67.0,62.8,92,85,75,29.79,29.64,16,9,21,0.00
2014-3-13,67.9,62.3,56.0,62.2,49.2,35.9,82,63,33,30.10,29.78,18,9,23,0.00
2014-3-14,77.3,61.1,45.3,57.4,48.3,40.7,88,66,34,30.17,30.03,9,4,14,0.00
2014-3-15,78.3,65.5,55.5,60.1,56.0,52.3,90,73,43,30.09,29.92,11,4,14,0.00
2014-3-16,80.0,70.5,59.6,66.2,61.8,56.1,91,75,52,29.93,29.68,16,7,26,0.00
2014-3-17,75.8,72.6,67.5,72.1,69.1,64.6,97,89,75,29.68,29.55,14,10,27,2.38
2014-3-18,72.8,65.7,58.2,71.0,58.1,52.2,96,77,57,29.94,29.56,22,9,29,0.23
2014-3-19,70.7,62.0,52.9,60.0,55.9,51.2,98,82,61,30.02,29.92,14,5,27,0.00
2014-3-20,73.4,65.9,61.6,63.7,59.7,56.5,88,81,68,29.98,29.89,15,6,18,0.00
2014-3-21,85.4,71.4,59.5,67.4,61.8,57.2,93,74,42,29.98,29.87,9,4,13,0.00
2014-3-22,74.7,69.4,63.8,67.1,64.5,61.7,97,85,73,29.99,29.89,11,5,13,0.00
2014-3-23,79.4,72.2,67.2,71.3,67.7,64.2,95,86,64,29.95,29.88,13,5,16,0.00
2014-3-24,70.0,67.2,64.3,67.3,65.3,63.4,97,94,88,29.98,29.81,9,3,15,0.78
2014-3-25,70.7,66.4,62.9,67.4,59.9,44.9,98,81,50,29.95,29.75,20,10,26,0.21
2014-3-26,67.3,58.1,48.0,46.7,33.0,23.7,60,40,25,30.19,29.96,15,6,23,0.00
2014-3-27,65.8,59.2,50.9,59.8,52.8,42.1,88,79,61,30.21,30.09,9,4,14,0.02
2014-3-28,77.3,70.7,62.0,67.4,63.7,58.3,88,79,67,30.09,29.90,10,5,19,0.00
2014-3-29,77.4,71.2,67.3,73.2,68.7,65.2,98,92,85,29.93,29.81,13,6,18,0.57
2014-3-30,70.7,64.2,59.8,65.0,54.6,47.5,92,72,46,30.01,29.85,16,10,20,0.00
2014-3-31,76.5,64.2,52.3,57.5,51.4,41.9,96,68,29,30.06,29.98,8,3,20,0.00
2014-4-1,78.7,64.9,53.3,62.5,57.4,51.1,96,78,42,30.08,30.00,10,4,13,0.00
2014-4-2,82.2,68.6,58.9,64.2,59.8,54.1,94,76,38,30.08,30.01,11,4,14,0.00
2014-4-3,78.8,69.6,61.6,64.1,61.7,59.3,95,77,58,30.04,29.93,11,4,15,0.00
2014-4-4,80.3,72.3,62.7,67.1,64.2,60.9,95,77,53,29.96,29.90,9,4,14,0.00
2014-4-5,81.7,71.9,61.8,69.5,64.6,60.5,98,80,54,29.95,29.86,10,2,13,0.00
2014-4-6,81.0,73.1,64.4,68.1,65.0,61.3,96,78,52,29.93,29.83,12,4,16,0.00
2014-4-7,84.1,76.4,68.3,72.7,69.2,65.9,94,79,56,29.85,29.73,14,7,20,0.00
2014-4-8,78.6,72.8,67.7,73.6,67.8,55.6,96,85,65,29.79,29.64,19,10,25,1.03
2014-4-9,68.5,66.4,62.6,57.7,53.8,50.3,76,64,53,30.08,29.79,20,14,25,0.00
2014-4-10,79.1,67.0,54.8,58.5,53.3,46.7,94,65,34,30.18,30.07,11,3,23,0.00
2014-4-11,72.3,62.8,56.4,60.2,54.9,52.8,88,76,64,30.15,30.08,4,2,5,0.00
2014-4-14,84.0,79.3,73.1,70.7,67.5,58.7,90,69,43,29.88,29.78,9,5,16,0.00
2014-4-15,81.1,74.0,65.8,75.2,70.5,59.2,95,89,80,29.87,29.71,18,8,23,0.05
2014-4-16,79.4,66.5,54.2,61.9,56.4,47.9,86,71,53,30.02,29.86,11,6,17,0.00
2014-4-17,84.3,71.4,62.5,70.8,64.6,58.2,93,80,64,30.05,29.96,12,6,17,0.02
2014-4-18,71.7,70.0,69.5,69.2,67.7,67.3,93,92,92,30.00,29.90,8,6,16,0.00
2014-4-23,74.6,71.6,67.2,65.4,64.3,63.3,90,78,70,29.86,29.79,11,7,15,0.00
2014-4-24,79.5,71.2,61.8,68.8,65.1,60.6,97,82,55,29.93,29.83,11,4,14,0.00
2014-4-25,79.6,72.7,64.7,69.3,66.5,63.5,98,82,63,29.93,29.84,12,4,14,0.00
2014-4-26,80.8,73.5,64.1,71.4,67.6,62.4,97,83,67,29.93,29.84,13,4,17,0.00
2014-4-27,85.0,76.4,66.9,71.9,67.5,62.2,96,76,48,29.92,29.81,10,4,16,0.00
2014-4-28,87.4,78.9,71.8,73.1,69.4,59.5,94,75,40,29.87,29.76,12,5,16,0.00
2014-4-29,88.2,79.9,72.8,73.9,71.5,68.7,94,77,58,29.89,29.75,12,5,23,0.00
2014-4-30,87.2,78.4,72.3,75.0,71.3,69.6,94,80,58,29.94,29.82,10,5,13,0.00
2014-5-1,84.1,80.6,77.9,75.5,74.9,73.4,91,83,73,29.88,29.84,11,6,22,0.00
2014-5-2,80.2,74.6,70.2,75.4,72.5,69.3,98,94,81,29.85,29.78,12,3,22,2.64
2014-5-3,70.3,69.8,69.3,69.7,69.2,68.7,98,98,98,29.82,29.80,6,2,8,0.01
2014-5-8,90.7,82.8,75.3,71.4,68.3,62.4,84,64,41,30.05,29.98,11,4,15,0.00
2014-5-9,87.9,78.4,70.5,71.3,69.0,65.3,95,74,48,30.06,29.95,10,5,17,0.00
2014-5-10,86.3,79.0,70.5,72.2,68.9,63.0,90,73,47,30.02,29.92,11,5,16,0.00
2014-5-11,90.9,80.8,74.5,72.9,70.3,66.0,89,72,44,30.03,29.92,10,4,13,0.00
2014-5-12,90.8,80.0,71.1,71.1,67.8,65.4,88,68,46,30.02,29.92,8,5,16,0.00
2014-5-13,90.8,80.1,71.7,73.1,70.5,67.0,92,74,53,29.96,29.85,10,6,17,0.06
2014-5-14,90.3,77.4,71.2,75.1,71.7,68.6,96,84,52,29.94,29.82,12,5,18,0.57
2014-5-15,83.0,76.4,72.8,76.6,72.4,66.5,96,88,77,29.91,29.80,16,7,20,0.10
2014-5-16,79.1,72.5,65.7,68.0,56.9,44.6,83,61,31,30.02,29.87,13,8,19,0.00
2014-5-17,85.8,73.6,60.6,59.3,54.2,48.0,80,54,28,30.06,29.96,9,4,19,0.00
2014-5-18,87.8,75.0,62.3,61.3,57.8,53.9,77,57,37,30.05,29.95,9,5,16,0.00
2014-5-19,81.1,69.3,62.6,64.4,61.4,59.6,91,77,54,30.06,30.01,6,2,13,0.00
2014-5-22,82.0,79.5,75.6,71.7,69.7,66.6,80,72,60,30.04,29.96,13,9,17,0.00
2014-5-23,82.8,77.1,68.9,74.5,71.4,66.4,95,83,71,30.01,29.93,13,6,17,0.00
2014-5-24,86.5,78.6,70.6,74.6,71.7,62.8,97,81,47,30.00,29.91,11,5,14,0.00
2014-5-25,87.9,80.3,72.4,76.7,73.3,63.6,95,80,52,30.00,29.90,10,4,14,0.06
2014-5-26,91.3,78.8,70.6,73.9,69.6,64.8,94,75,44,30.07,29.95,11,4,14,0.10
2014-5-27,88.6,76.7,70.6,74.0,70.9,66.0,96,84,53,30.04,29.92,10,3,12,0.37
2014-5-28,86.5,75.6,70.8,73.6,70.1,67.0,96,84,63,29.97,29.87,11,3,14,0.00
2014-5-29,88.8,76.9,70.5,74.1,70.4,67.0,94,81,55,29.92,29.84,14,4,19,0.11
2014-5-30,87.8,76.4,70.8,75.4,70.9,68.3,95,84,60,29.92,29.84,10,4,15,0.11
2014-5-31,90.7,76.9,69.9,74.9,71.2,68.4,96,84,51,29.93,29.83,9,2,13,0.89
2014-6-1,89.5,77.2,71.8,75.6,72.5,69.8,98,86,57,29.95,29.88,9,3,14,0.31
2014-6-2,84.1,77.9,72.9,72.9,71.0,68.7,96,80,63,29.98,29.91,11,6,19,0.00
2014-6-3,84.9,78.0,72.3,68.8,66.9,65.0,84,70,53,29.97,29.87,8,4,13,0.00
2014-6-4,88.9,78.6,70.1,70.6,66.1,61.2,83,67,42,29.90,29.81,12,4,15,0.00
2014-6-5,86.3,78.4,69.5,74.1,70.8,66.6,93,78,52,29.87,29.77,10,4,13,0.00
2014-6-6,85.5,80.7,72.9,74.5,72.1,69.2,96,76,59,29.90,29.79,11,4,14,0.00
2014-6-7,85.7,80.6,74.0,75.5,73.0,71.5,93,78,66,29.93,29.81,11,5,12,0.00
2014-6-8,85.7,80.0,73.5,74.5,72.5,70.1,92,79,63,29.91,29.80,12,5,14,0.05
2014-6-9,86.4,80.0,72.3,76.2,73.3,69.9,94,81,67,29.90,29.78,11,4,14,0.00
2014-6-10,88.5,81.2,71.7,76.2,73.1,67.2,92,77,56,29.92,29.84,9,4,14,0.05
2014-6-11,86.6,77.3,72.3,76.4,71.6,-99.9,96,85,66,29.91,29.82,18,5,24,0.55
2014-6-12,85.8,77.1,71.5,76.5,72.5,70.2,96,87,67,29.91,29.83,9,4,15,0.00
2014-6-13,85.5,79.1,71.9,76.8,73.7,69.3,95,84,70,29.93,29.85,20,5,25,0.37
2014-6-14,86.9,78.6,72.9,76.4,73.2,70.2,96,85,64,29.99,29.87,17,4,17,0.05
2014-6-15,88.5,78.7,72.2,76.9,72.1,69.2,94,81,60,30.04,29.93,11,4,14,0.00
2014-6-16,92.7,79.8,72.7,75.3,70.2,66.8,92,75,46,30.06,29.95,11,3,14,0.09
2014-6-17,92.8,78.9,71.2,73.5,70.2,66.9,95,77,44,30.04,29.95,10,3,15,0.00
2014-6-18,90.5,76.9,71.0,74.9,70.8,68.6,97,83,49,30.02,29.94,12,3,15,0.97
2014-6-19,87.8,79.0,70.1,76.9,72.3,67.5,98,81,58,30.02,29.95,10,3,14,0.02
2014-6-20,84.7,77.4,72.6,75.7,72.7,70.8,95,86,69,29.98,29.93,9,2,14,0.00
2014-6-24,87.7,84.9,80.6,76.2,74.0,69.7,83,70,60,30.04,29.97,10,6,12,0.00
2014-6-25,88.9,83.7,77.6,77.0,75.1,71.3,93,76,60,30.04,29.92,10,4,13,0.00
2014-6-26,91.4,84.8,76.6,77.6,74.4,70.0,93,72,51,30.01,29.86,11,3,15,0.00
2014-6-27,93.4,81.6,74.5,77.3,73.7,69.1,95,78,53,30.01,29.91,11,4,13,0.26
2014-6-28,91.3,82.3,74.2,78.9,74.8,69.2,98,80,50,30.04,29.96,11,3,15,0.01
2014-6-29,92.6,85.1,77.4,78.8,75.6,70.4,92,74,51,30.03,29.92,17,5,20,0.00
2014-6-30,94.2,83.7,75.8,77.8,73.6,70.1,89,73,48,29.98,29.79,15,4,19,0.00
2014-7-1,89.7,82.6,74.1,78.7,75.7,70.4,94,80,65,29.86,29.74,14,4,18,0.44
2014-7-2,90.0,82.5,75.1,79.5,75.6,72.3,95,81,57,29.85,29.78,14,4,22,0.00
2014-7-3,88.3,83.3,74.6,77.1,75.6,72.6,97,78,64,30.01,29.84,11,5,19,1.44
2014-7-4,87.2,80.4,74.6,77.7,75.0,72.7,98,84,66,30.01,29.93,15,3,15,0.02
2014-7-5,87.8,81.2,75.7,77.5,74.7,71.6,95,82,63,30.02,29.95,9,3,13,0.02
2014-7-6,88.0,79.8,74.3,76.7,74.0,71.3,95,83,62,29.99,29.92,10,4,12,0.00
2014-7-7,86.1,78.4,73.8,76.9,74.0,71.8,95,87,70,30.02,29.92,5,2,7,0.00
2014-7-8,87.7,80.7,73.6,77.7,74.5,71.6,95,82,67,30.04,29.95,11,3,14,0.00
2014-7-9,87.4,80.4,74.0,77.4,74.2,70.1,95,82,65,30.03,29.95,10,3,13,0.00
2014-7-10,88.5,79.8,74.8,77.5,74.2,70.5,95,84,64,30.02,29.94,12,3,14,0.22
2014-7-11,89.0,79.8,74.2,77.7,73.5,70.2,96,82,59,30.04,29.96,11,3,12,0.00
2014-7-12,92.1,80.1,74.4,77.8,73.7,66.9,95,82,53,30.02,29.96,12,3,19,0.01
2014-7-13,90.5,79.7,73.6,77.5,74.0,68.4,95,84,55,30.01,29.92,13,3,15,0.84
2014-7-14,88.3,81.1,74.1,77.7,74.7,71.2,96,82,65,29.99,29.91,10,3,14,0.00
2014-7-15,88.2,81.1,73.4,78.4,74.9,71.8,95,82,66,29.93,29.84,10,4,14,1.17
2014-7-16,82.9,77.4,73.3,77.7,74.9,71.2,98,92,80,29.89,29.81,17,3,17,0.84
2014-7-17,87.8,82.3,76.0,78.3,75.4,72.5,95,80,67,29.92,29.81,13,6,17,0.31
2014-7-18,88.4,82.0,73.4,76.5,73.4,71.6,95,76,59,29.98,29.89,8,3,17,0.00
2014-7-19,90.1,83.0,75.2,78.2,74.7,72.1,93,77,60,29.97,29.89,11,4,14,0.00
2014-7-20,90.3,83.6,75.7,80.3,75.8,71.9,93,78,60,29.96,29.89,12,4,16,0.00
2014-7-21,90.5,83.4,75.6,78.6,75.0,71.6,93,77,60,29.96,29.88,12,4,16,0.00
2014-7-22,88.0,83.5,74.6,77.9,75.3,71.8,92,77,67,29.96,29.90,10,4,14,0.00
2014-7-23,88.8,82.7,76.0,80.4,75.9,73.9,95,81,64,29.98,29.89,9,3,13,0.17
2014-7-24,89.4,82.2,75.5,79.8,76.7,72.3,95,84,67,29.96,29.86,9,2,11,0.89
2014-7-25,90.3,84.1,77.7,78.9,76.5,74.0,95,79,60,29.98,29.90,9,3,13,0.00
2014-7-26,89.0,83.9,77.9,78.3,76.3,74.5,91,78,65,29.99,29.92,10,3,12,0.00
2014-7-27,89.3,84.1,77.7,78.9,76.4,74.4,94,78,64,30.01,29.94,11,4,14,0.00
2014-7-28,89.4,85.0,80.9,78.3,76.4,75.0,86,76,63,29.96,29.88,13,6,17,0.00
2014-7-29,88.0,84.4,78.9,79.6,77.0,74.3,91,79,68,29.90,29.83,16,8,22,0.14
2014-7-30,88.9,83.4,74.0,78.6,74.2,67.7,98,75,59,29.88,29.82,11,4,14,0.52
2014-7-31,88.2,82.0,73.6,73.1,70.3,66.4,87,69,50,29.90,29.82,10,4,13,0.00
2014-8-1,90.2,83.3,74.6,74.2,71.5,66.2,91,69,48,29.89,29.81,11,4,14,0.00
2014-8-2,83.5,78.8,76.3,76.3,74.3,73.5,92,86,77,29.87,29.81,3,1,5,0.00
2014-8-5,88.8,84.3,79.6,78.6,76.3,74.0,88,77,67,29.95,29.90,9,4,10,0.41
2014-8-6,89.2,82.6,73.7,78.4,76.4,72.0,98,82,65,29.98,29.87,11,3,16,0.99
2014-8-7,89.3,83.7,77.0,77.8,76.2,73.7,95,79,64,29.92,29.84,11,4,14,0.00
2014-8-8,91.0,82.4,75.5,79.0,74.7,71.1,93,79,55,29.95,29.85,10,3,14,0.27
2014-8-9,89.8,82.9,75.3,77.6,74.5,71.5,93,77,58,29.97,29.88,9,4,14,0.00
2014-8-10,89.9,82.8,78.0,79.2,76.0,72.4,93,81,61,29.96,29.89,14,4,20,0.08
2014-8-11,89.6,82.7,77.8,78.5,75.0,73.0,92,79,60,29.96,29.88,10,4,14,0.00
2014-8-12,89.8,83.5,76.2,77.2,74.9,72.4,93,76,60,29.92,29.83,10,4,14,0.00
2014-8-13,89.6,83.7,78.5,78.9,76.4,74.8,91,79,63,29.92,29.85,10,3,12,0.15
2014-8-14,88.4,82.6,77.0,79.4,76.9,74.5,97,84,69,29.93,29.85,11,2,16,0.21
2014-8-15,79.2,77.0,34.4,77.6,74.4,73.0,97,93,90,29.95,29.86,6,2,16,1.22
2014-8-16,87.2,79.9,74.9,79.7,76.2,72.6,97,89,72,29.99,29.89,6,1,13,0.38
2014-8-17,89.5,82.6,76.1,79.3,76.5,74.7,96,83,65,30.01,29.93,9,3,12,0.00
2014-8-18,89.9,83.3,76.9,79.5,76.5,74.7,96,81,64,29.97,29.87,12,3,14,0.00
2014-8-19,89.5,83.5,76.3,78.1,75.9,74.6,96,79,64,29.94,29.86,11,3,13,0.00
2014-8-20,91.0,84.0,75.6,78.6,76.1,73.5,95,78,62,29.99,29.88,12,4,14,0.00
2014-8-21,94.1,84.1,76.2,79.9,75.2,66.8,93,76,42,30.02,29.92,14,4,23,0.00
2014-8-22,91.1,83.1,75.6,81.2,75.3,72.3,92,78,62,30.01,29.87,12,3,15,0.01
2014-8-23,93.6,83.6,74.8,79.5,74.1,71.0,93,75,49,29.90,29.75,13,3,15,0.00
2014-8-24,91.4,84.5,77.1,80.8,75.7,70.5,90,76,54,29.78,29.64,13,4,16,0.00
2014-8-25,93.1,83.0,78.3,77.3,76.2,74.8,92,81,56,29.73,29.68,10,4,17,0.00
2014-8-27,95.3,88.6,81.5,76.6,72.4,66.3,78,60,41,29.87,29.79,11,5,13,0.00
2014-8-28,96.1,83.8,75.3,77.8,74.0,68.8,94,75,44,29.89,29.79,11,4,14,0.01
2014-8-29,90.7,82.6,76.9,78.6,75.8,71.0,94,81,64,29.98,29.85,8,3,12,0.10
2014-8-30,95.5,81.7,74.6,80.1,74.2,70.3,96,80,49,30.02,29.90,12,3,20,0.94
2014-8-31,95.2,81.5,73.8,78.9,74.5,71.2,97,81,48,30.02,29.92,11,2,13,0.00
2014-9-1,94.6,82.2,75.5,77.9,75.0,70.8,94,80,49,30.01,29.90,12,3,14,0.02
2014-9-2,90.5,81.6,75.7,78.5,74.9,73.0,94,81,63,29.98,29.85,13,3,16,0.12
2014-9-3,92.3,80.2,72.4,75.3,72.9,69.9,97,80,49,29.94,29.83,12,3,15,0.91
2014-9-4,88.9,79.5,73.6,77.7,74.6,72.5,97,86,61,30.00,29.90,9,2,13,0.05
2014-9-5,89.2,80.3,74.4,77.6,74.5,72.7,95,83,62,30.01,29.91,10,3,13,0.01
2014-9-6,88.7,80.1,73.9,76.5,73.5,71.4,95,81,59,29.96,29.84,11,4,13,0.00
2014-9-7,89.6,79.2,74.4,76.3,73.6,72.1,96,84,60,29.91,29.82,10,3,16,0.01
2014-9-8,88.6,80.3,74.2,77.0,73.7,71.7,92,81,64,29.95,29.86,10,3,13,0.00
2014-9-9,88.6,79.8,74.6,76.0,73.1,69.8,92,81,57,29.95,29.84,10,3,12,0.00
2014-9-10,94.0,82.5,73.3,75.2,72.7,70.7,96,75,48,29.90,29.81,8,3,12,0.00
2014-9-11,90.2,80.9,74.3,76.9,73.6,70.3,95,80,53,29.92,29.82,7,2,12,0.20
2014-9-12,91.0,81.6,73.5,77.5,74.8,72.3,96,81,59,29.90,29.78,9,4,14,0.00
2014-9-13,91.0,81.0,74.9,74.9,72.5,69.2,91,77,50,29.96,29.85,8,5,14,0.00
2014-9-14,87.7,79.1,73.6,76.4,73.8,71.0,94,84,63,30.03,29.93,10,4,15,0.27
2014-9-15,89.9,81.7,74.4,76.9,74.0,70.9,94,79,54,30.05,29.96,10,4,15,0.00
2014-9-16,88.9,81.3,75.2,75.9,73.4,68.6,93,78,56,30.02,29.87,14,3,17,0.00
2014-9-17,81.4,76.8,72.5,75.3,73.7,71.0,97,90,75,29.89,29.76,16,3,22,0.88
2014-9-18,88.3,79.7,71.1,76.5,73.8,70.5,98,83,60,29.84,29.75,10,3,21,0.00
2014-9-19,81.3,75.7,70.2,76.2,72.8,68.8,97,91,80,29.85,29.77,6,3,12,1.05
2014-9-20,83.8,75.7,70.7,74.5,71.6,69.8,98,88,68,29.84,29.76,7,2,11,0.09
2014-9-21,86.3,78.9,72.3,75.7,73.4,70.8,96,84,68,29.91,29.81,9,2,12,0.00
2014-9-22,82.8,75.3,72.3,77.2,73.3,69.5,98,94,82,29.93,29.85,13,2,15,0.17
2014-9-23,85.8,76.5,71.6,75.6,72.9,70.4,98,89,66,29.91,29.83,8,2,10,0.01
2014-9-24,87.5,76.9,71.5,76.0,72.9,70.3,97,88,64,29.97,29.88,9,3,9,0.31
2014-9-25,88.5,77.8,70.7,77.6,73.4,69.2,96,87,68,29.98,29.86,6,3,11,0.04
2014-9-26,89.5,78.3,72.8,78.1,74.4,71.6,98,89,64,29.90,29.80,10,3,12,0.76
2014-9-27,90.0,77.5,72.8,78.3,74.1,71.8,98,90,62,29.91,29.80,9,3,14,2.38
2014-9-28,90.0,77.7,73.1,78.1,74.2,71.8,99,90,61,29.91,29.78,11,3,13,1.34
2014-9-29,86.6,77.2,73.5,77.8,74.4,71.8,98,92,71,29.85,29.73,13,3,17,0.46
2014-9-30,83.9,76.9,74.2,78.6,75.1,73.2,99,94,82,29.76,29.69,13,3,21,0.97
2014-10-1,85.9,80.2,75.7,78.2,75.9,74.8,98,87,72,29.87,29.72,10,3,14,0.01
2014-10-2,87.4,80.3,74.4,77.0,74.7,71.9,98,84,61,29.93,29.84,8,3,11,0.00
2014-10-3,87.1,81.1,75.1,77.8,75.6,73.8,97,84,70,29.93,29.84,9,3,15,0.00
2014-10-4,83.2,77.2,72.1,76.6,70.7,58.0,98,81,54,29.87,29.75,16,6,21,1.00
2014-10-5,78.3,69.9,60.9,62.5,51.9,45.1,73,54,39,29.93,29.82,10,4,14,0.00
2014-10-6,82.3,72.4,61.2,69.8,62.9,51.6,86,73,59,29.96,29.87,7,2,12,0.00
2014-10-7,85.3,76.7,70.7,74.3,69.5,66.3,91,79,64,29.98,29.89,9,3,11,0.00
2014-10-8,87.1,77.8,70.4,74.5,71.0,68.2,94,81,60,30.02,29.92,10,3,12,0.00
2014-10-9,91.3,80.4,71.3,72.7,69.3,66.1,95,72,45,29.99,29.88,8,3,14,0.00
2014-10-10,91.4,80.6,69.5,72.7,69.3,66.6,97,71,47,29.96,29.85,8,3,10,0.00
2014-10-11,89.3,78.8,70.4,75.0,71.4,68.5,96,79,53,29.93,29.84,11,3,13,0.00
2014-10-12,89.7,78.8,69.6,74.6,70.8,67.5,96,78,49,29.95,29.87,9,3,14,0.00
2014-10-13,90.2,80.0,72.5,74.9,72.1,69.0,95,78,54,29.96,29.85,11,4,15,0.12
2014-10-14,84.7,76.7,72.2,78.1,73.4,68.7,98,90,72,29.92,29.80,15,5,19,1.49
2014-10-15,80.7,75.2,66.4,74.8,70.1,63.1,99,85,65,29.88,29.81,12,4,15,0.59
2014-10-16,80.1,73.7,64.8,65.2,62.4,59.6,95,69,54,29.88,29.79,14,6,19,0.00
2014-10-17,81.6,70.9,60.6,62.4,58.3,50.3,91,67,38,29.90,29.82,9,3,12,0.00
2014-10-18,80.0,70.0,59.7,66.7,62.8,58.0,96,79,58,29.90,29.82,10,2,12,0.00
2014-10-19,85.4,73.4,62.7,70.3,65.5,61.2,97,78,52,29.92,29.85,7,2,9,0.00
2014-10-20,87.8,75.3,65.7,69.7,65.8,62.5,95,75,43,29.93,29.82,7,2,10,0.00
2014-10-21,83.9,75.8,69.5,70.4,67.1,64.4,92,76,55,29.86,29.78,5,2,7,0.00
2014-10-27,85.4,75.6,67.0,64.7,60.8,53.2,88,64,34,29.99,29.92,8,2,10,0.00
2014-10-28,85.7,73.9,64.0,68.7,63.8,59.8,95,73,42,30.05,29.95,5,2,10,0.00
2014-10-29,84.7,74.7,66.6,72.3,67.3,63.8,94,79,54,29.99,29.88,8,2,11,0.00
2014-10-30,81.5,73.8,67.0,69.9,67.8,65.0,95,82,61,29.90,29.76,8,2,10,0.00
2014-10-31,74.3,71.6,69.0,69.4,60.7,52.2,93,70,48,29.82,29.72,14,7,20,0.00
2014-11-1,71.3,64.2,54.6,58.4,48.4,39.0,75,57,41,30.08,29.78,20,13,28,0.00
2014-11-2,54.3,52.1,49.9,43.3,41.3,40.1,72,67,62,30.13,30.09,5,3,20,0.00
2014-11-4,80.1,72.8,64.5,61.4,59.6,57.7,84,65,47,30.12,30.04,7,2,12,0.00
2014-11-5,84.7,72.0,61.2,65.6,61.9,58.7,93,73,46,30.11,29.98,9,2,12,0.00
2014-11-6,82.5,71.8,64.7,68.4,65.5,61.9,94,82,53,30.04,29.89,12,3,15,0.00
2014-11-7,75.5,68.3,57.7,66.2,61.4,53.1,97,79,52,29.90,29.81,10,4,14,0.00
2014-11-8,74.9,62.0,51.6,62.4,56.6,49.8,95,83,47,29.87,29.76,10,2,11,0.34
2014-11-9,68.4,61.5,57.4,61.0,58.7,56.3,97,91,76,29.84,29.74,7,2,11,0.23
2014-11-10,71.6,65.3,59.6,60.8,59.1,56.2,95,81,61,29.88,29.82,13,4,16,0.00
2014-11-11,72.7,65.8,57.5,62.5,58.1,55.4,98,77,59,29.88,29.81,15,5,20,0.00
2014-11-12,73.7,65.9,56.9,60.0,56.2,50.3,90,73,47,29.96,29.86,9,3,12,0.00
2014-11-13,77.9,63.6,53.0,60.9,55.7,51.8,97,79,45,29.97,29.88,8,1,10,0.00
2014-11-21,72.9,68.8,63.6,59.3,57.5,56.3,86,68,58,30.13,30.07,10,5,18,0.00
2014-11-22,77.4,70.3,61.7,70.3,66.1,59.2,95,87,77,30.11,29.94,10,5,18,0.00
2014-11-23,82.8,76.0,70.3,74.0,71.9,68.5,95,88,72,29.93,29.76,17,8,24,0.01
2014-11-24,81.2,76.3,73.1,74.7,73.3,70.7,98,91,78,29.91,29.80,11,5,16,0.00
2014-11-25,79.5,74.7,71.0,76.7,73.2,69.5,98,95,90,29.90,29.74,12,5,18,0.00
2014-11-26,71.7,60.3,54.9,71.1,53.4,43.6,98,79,59,30.12,29.72,20,9,29,0.01
2014-11-27,68.8,58.6,47.0,57.0,47.9,40.6,95,69,48,30.19,30.08,15,5,21,0.01
2014-11-28,61.8,52.7,44.3,43.5,39.0,34.9,81,60,41,30.24,30.12,8,4,13,0.00
2014-11-29,74.3,59.1,46.7,55.5,50.2,43.0,90,74,48,30.19,30.10,6,3,11,0.00
2014-11-30,78.4,64.9,52.3,60.7,56.9,50.9,96,77,52,30.21,30.11,8,3,11,0.01
2014-12-1,81.5,69.1,58.2,67.2,62.3,56.3,95,80,57,30.20,30.07,8,4,14,0.00
2014-12-2,79.3,70.4,63.1,68.5,65.3,61.9,96,85,67,30.12,30.00,9,4,13,0.01
2014-12-3,80.9,70.5,62.7,68.7,64.4,60.9,97,82,64,30.08,29.98,7,3,12,0.00
2014-12-4,82.7,70.9,62.0,67.2,63.7,59.8,94,79,57,30.10,29.99,9,4,13,0.00
2014-12-5,81.6,72.2,64.4,69.3,66.2,61.5,94,82,64,30.13,30.03,8,4,16,0.00
2014-12-6,78.7,70.2,64.0,69.7,66.6,62.9,97,89,71,30.12,30.01,9,3,12,0.01
2014-12-7,69.2,65.3,58.9,65.1,62.6,55.2,98,91,83,30.03,29.93,9,4,12,0.00
2014-12-8,63.7,61.1,57.7,61.5,58.9,55.5,96,92,89,30.02,29.92,8,4,12,0.01
2014-12-9,61.8,57.7,55.0,56.6,51.7,43.7,97,81,62,30.01,29.93,15,9,20,0.00
2014-12-10,63.9,55.2,44.9,51.2,46.3,40.7,93,73,53,30.05,29.97,9,3,13,0.00
2014-12-11,64.7,55.4,47.8,52.2,49.2,44.6,95,81,61,30.11,29.99,13,3,17,0.00
2014-12-12,58.4,52.2,47.1,50.2,44.5,37.6,95,76,49,30.18,30.07,5,1,6,0.00
2014-12-13,69.0,54.3,42.9,48.9,43.7,37.3,95,71,34,30.10,29.99,8,2,11,0.00
2014-12-14,66.8,53.9,42.1,50.0,44.4,36.8,96,74,35,30.02,29.94,9,2,13,0.00
2014-12-15,68.3,54.5,42.9,57.0,49.9,41.3,97,86,47,30.04,29.95,6,1,10,0.00
2014-12-16,70.4,58.4,46.3,60.5,54.5,45.5,99,88,68,30.10,30.02,7,2,10,0.00
2014-12-17,72.6,63.9,53.4,61.7,58.3,49.6,98,83,63,30.11,30.00,8,2,10,0.00
2014-12-18,66.2,56.5,47.5,57.5,52.5,46.3,97,87,72,30.10,29.98,7,2,11,0.00
2014-12-19,73.6,58.7,47.7,57.4,51.8,46.6,96,80,47,30.04,29.92,8,1,10,0.00
2014-12-20,77.2,65.4,54.7,62.9,58.3,50.4,94,79,55,29.99,29.91,7,2,11,0.00
2014-12-21,77.7,69.3,61.6,68.1,64.1,59.6,94,84,64,29.98,29.87,8,3,11,0.00
2014-12-22,78.1,71.4,66.4,72.0,68.5,65.2,97,91,79,29.91,29.78,12,5,22,0.00
2014-12-23,82.0,74.4,67.3,71.6,69.2,65.2,98,85,57,29.84,29.74,11,5,16,0.00
2014-12-24,80.3,74.4,66.8,73.8,70.3,61.3,96,87,77,29.89,29.71,16,9,25,0.00
2014-12-25,68.5,63.4,56.0,63.3,56.1,51.6,88,78,61,30.12,29.87,15,4,16,0.00
2014-12-26,74.3,63.9,52.8,59.6,54.8,49.8,91,74,51,30.13,30.05,5,2,10,0.00
2014-12-27,78.9,69.9,62.3,69.9,64.7,59.0,95,84,74,30.15,30.02,6,1,8,0.00
2014-12-28,78.2,70.9,62.7,69.8,66.4,61.5,98,86,71,30.07,29.98,8,2,11,0.00
2014-12-29,77.5,70.2,63.4,71.2,67.3,61.8,98,91,75,30.04,29.93,8,3,12,0.00
2014-12-30,71.4,68.9,67.0,71.1,68.2,66.1,99,98,93,30.11,29.98,6,2,10,0.00
2014-12-31,68.3,64.0,61.3,65.9,61.9,59.6,97,93,84,30.16,30.07,7,4,13,0.00
2015-1-1,74.8,65.5,59.5,67.7,62.7,58.7,98,91,76,30.15,30.02,6,2,10,0.00
2015-1-2,79.1,70.0,63.8,70.6,67.2,63.2,99,91,71,30.15,30.05,5,2,9,0.00